,,PA_Meas_PMT16A,,PR_Meas_QMR101_102,,RH_Meas_QMH101,,SR_Meas_QMS101,,TA_Meas_QMH101,,GenWind,,GenWind,
time,status,PA,status,PR,status,RH,status,SR,status,TA,status,DirAvg,status,SpdAvg,
2017-01-23, 15:46:04,VALID,921.028,VALID,0,INVALID,122.447,VALID,119.582,VALID,19.0218,VALID,345,VALID,1.41758,
2017-01-23, 15:47:04,VALID,921.036,VALID,0,INVALID,122.508,VALID,121.194,VALID,19.0023,VALID,32,VALID,1.33281,
2017-01-23, 15:48:04,VALID,921.031,VALID,0,INVALID,122.341,VALID,123.88,VALID,19.0593,VALID,23,VALID,1.41367,
2017-01-23, 15:49:04,VALID,921.033,VALID,0,INVALID,122.409,VALID,127.103,VALID,19.0398,VALID,320,VALID,0.487109,
2017-01-23, 15:50:04,VALID,921.042,VALID,0,INVALID,122.394,VALID,129.574,VALID,19.0608,VALID,351,VALID,1.27578,
2017-01-23, 15:51:04,VALID,921.053,VALID,0,INVALID,122.356,VALID,128.177,VALID,19.0998,VALID,352,VALID,1.41914,
2017-01-23, 16:34:04,INVALID - VALUE NOT AVAILABLE,0,INVALID - VALUE NOT AVAILABLE,0,INVALID - VALUE NOT AVAILABLE,0,INVALID - VALUE NOT AVAILABLE,0,INVALID - VALUE NOT AVAILABLE,0,INVALID,360,INVALID,0,
2017-01-23, 16:59:04,VALID,921.202,VALID,0,INVALID,123.08,VALID,130.648,VALID,19.2153,VALID,261,VALID,0,
2017-01-23, 17:00:04,VALID,921.198,VALID,0.2,INVALID,123.126,VALID,133.549,VALID,19.2153,VALID,261,VALID,0,
2017-01-23, 17:01:04,VALID,921.187,VALID,0,INVALID,123.141,VALID,138.492,VALID,19.2153,VALID,261,VALID,0,
2017-01-23, 17:02:04,VALID,921.158,VALID,0,INVALID,123.08,VALID,141.5,VALID,19.2543,VALID,261,VALID,0,
2017-01-23, 17:03:04,VALID,921.163,VALID,0,INVALID,123.126,VALID,139.351,VALID,19.2528,VALID,260,VALID,0,
2017-01-23, 17:04:04,VALID,921.161,VALID,0,INVALID,123.126,VALID,140.855,VALID,19.2738,VALID,260,VALID,0,
2017-01-23, 17:05:04,VALID,921.182,VALID,0,INVALID,122.905,VALID,140.103,VALID,19.4298,VALID,261,VALID,0,
2017-01-23, 17:06:04,VALID,921.171,VALID,0.2,INVALID,122.844,VALID,138.492,VALID,19.4883,VALID,261,VALID,0,
2017-01-23, 17:07:04,VALID,921.154,VALID,0,INVALID,122.867,VALID,136.88,VALID,19.5273,VALID,261,VALID,0,
2017-01-23, 17:08:04,VALID,921.153,VALID,0,INVALID,122.981,VALID,138.492,VALID,19.5078,VALID,260,VALID,0,
2017-01-23, 17:09:04,VALID,921.143,VALID,0,INVALID,123.072,VALID,139.029,VALID,19.4478,VALID,260,VALID,0,
2017-01-23, 17:10:04,VALID,921.119,VALID,0,INVALID,123.095,VALID,139.244,VALID,19.4883,VALID,260,VALID,0,
2017-01-23, 17:11:04,VALID,921.104,VALID,0.2,INVALID,123.225,VALID,136.558,VALID,19.4283,VALID,260,VALID,0,
2017-01-23, 17:12:04,VALID,921.125,VALID,0,INVALID,123.225,VALID,133.227,VALID,19.4493,VALID,260,VALID,0,
2017-01-23, 17:13:04,VALID,921.085,VALID,0,INVALID,123.286,VALID,131.186,VALID,19.4298,VALID,260,VALID,0,
2017-01-23, 17:14:04,VALID,921.095,VALID,0,INVALID,123.278,VALID,132.905,VALID,19.4688,VALID,260,VALID,0,
2017-01-23, 17:15:04,VALID,921.075,VALID,0.2,INVALID,123.172,VALID,134.194,VALID,19.5663,VALID,260,VALID,0,
2017-01-23, 17:16:04,VALID,921.073,VALID,0,INVALID,123.141,VALID,135.698,VALID,19.6068,VALID,260,VALID,0,
2017-01-23, 17:17:04,VALID,921.082,VALID,0,INVALID,123.324,VALID,135.698,VALID,19.5273,VALID,260,VALID,0,
2017-01-23, 17:18:04,VALID,921.047,VALID,0,INVALID,123.324,VALID,133.872,VALID,19.5663,VALID,261,VALID,0,
2017-01-23, 17:19:04,VALID,921.061,VALID,0,INVALID,123.263,VALID,137.417,VALID,19.6248,VALID,280,VALID,0,
2017-01-23, 17:20:04,VALID,921.034,VALID,0,INVALID,123.316,VALID,140.426,VALID,19.6233,VALID,282,VALID,0,
2017-01-23, 17:21:04,VALID,921.049,VALID,0.2,INVALID,123.377,VALID,140.211,VALID,19.6443,VALID,271,VALID,0,
2017-01-23, 17:22:04,VALID,921.039,VALID,0,INVALID,123.454,VALID,139.351,VALID,19.6233,VALID,271,VALID,0,
2017-01-23, 17:23:04,VALID,921.002,VALID,0,INVALID,123.492,VALID,137.31,VALID,19.6428,VALID,271,VALID,0,
2017-01-23, 17:24:04,VALID,921.031,VALID,0,INVALID,123.56,VALID,138.169,VALID,19.6833,VALID,330,VALID,0,
2017-01-23, 17:25:04,VALID,920.996,VALID,0,INVALID,123.522,VALID,140.64,VALID,19.7223,VALID,330,VALID,0,
2017-01-23, 17:26:04,VALID,921.001,VALID,0,INVALID,123.614,VALID,142.36,VALID,19.7223,INVALID,360,VALID,0,
2017-01-23, 17:27:04,VALID,920.985,VALID,0,INVALID,123.537,VALID,144.938,VALID,19.7598,VALID,325,VALID,0,
2017-01-23, 17:28:04,VALID,920.954,VALID,0,INVALID,123.72,VALID,147.839,VALID,19.7613,INVALID,360,VALID,0,
2017-01-23, 17:29:04,VALID,920.931,VALID,0,INVALID,123.85,VALID,149.666,VALID,19.7403,VALID,37,VALID,0,
2017-01-23, 17:30:04,VALID,920.91,VALID,0.2,INVALID,123.835,VALID,151.277,VALID,19.8198,VALID,356,VALID,0,
2017-01-23, 17:31:04,VALID,920.909,VALID,0,INVALID,123.972,VALID,151.707,VALID,19.8198,VALID,359,VALID,0,
2017-01-23, 17:32:04,VALID,920.877,VALID,0,INVALID,124.124,VALID,151.922,VALID,19.8198,VALID,360,VALID,0,
2017-01-23, 17:33:04,VALID,920.873,VALID,0,INVALID,124.429,VALID,151.277,VALID,19.7613,VALID,334,VALID,0,
2017-01-23, 17:34:04,VALID,920.868,VALID,0,INVALID,124.605,VALID,150.203,VALID,19.7823,VALID,341,VALID,0,
2017-01-23, 17:35:04,VALID,920.852,VALID,0,INVALID,124.666,VALID,148.376,VALID,19.7613,VALID,334,VALID,0,
2017-01-23, 17:36:04,VALID,920.84,VALID,0,INVALID,124.849,VALID,146.013,VALID,19.7418,VALID,309,VALID,0,
2017-01-23, 17:37:04,VALID,920.83,VALID,0,INVALID,124.841,VALID,143.971,VALID,19.8198,VALID,2,VALID,0,
2017-01-23, 17:38:04,VALID,920.834,VALID,0,INVALID,124.955,VALID,142.145,VALID,19.8198,VALID,352,VALID,0,
2017-01-23, 17:39:04,VALID,920.813,VALID,0,INVALID,124.978,VALID,140.426,VALID,19.8588,VALID,329,VALID,0,
2017-01-23, 17:40:04,VALID,920.815,VALID,0,INVALID,125.329,VALID,139.136,VALID,19.8003,VALID,298,VALID,0,
2017-01-23, 17:41:04,VALID,920.833,VALID,0,INVALID,125.42,VALID,139.566,VALID,19.8198,VALID,349,VALID,0,
2017-01-23, 17:42:04,VALID,920.787,VALID,0,INVALID,125.367,VALID,138.707,VALID,19.8783,VALID,349,VALID,0,
2017-01-23, 17:43:04,VALID,920.789,VALID,0,INVALID,125.398,VALID,137.74,VALID,19.9368,VALID,349,VALID,0,
2017-01-23, 17:44:04,VALID,920.769,VALID,0,INVALID,125.542,VALID,135.376,VALID,19.9758,VALID,349,VALID,0,
2017-01-23, 17:45:04,VALID,920.771,VALID,0,INVALID,125.588,VALID,131.615,VALID,19.9953,VALID,358,VALID,0.246094,
2017-01-23, 17:48:04,VALID,920.743,VALID,0,INVALID,125.855,VALID,127.962,VALID,20.1123,VALID,3,VALID,0,
2017-01-23, 17:49:04,VALID,920.759,VALID,0.2,INVALID,126.236,VALID,127.855,VALID,20.0733,VALID,357,VALID,0,
2017-01-23, 17:50:04,VALID,920.75,VALID,0,INVALID,126.305,VALID,131.938,VALID,20.0733,VALID,3,VALID,0,
2017-01-23, 17:51:04,VALID,920.723,VALID,0,INVALID,126.472,VALID,134.087,VALID,20.0328,VALID,295,VALID,0,
2017-01-23, 17:52:04,VALID,920.717,VALID,0,INVALID,126.434,VALID,132.045,VALID,20.0928,VALID,320,VALID,0,
2017-01-23, 17:55:04,VALID,920.697,VALID,0.2,INVALID,127.105,VALID,130.863,VALID,19.9953,VALID,351,VALID,0,
2017-01-23, 17:56:04,VALID,920.706,VALID,0,INVALID,127.166,VALID,135.376,VALID,20.0343,VALID,351,VALID,0,
2017-01-23, 17:57:04,VALID,920.687,VALID,0,INVALID,127.159,VALID,132.582,VALID,20.0733,VALID,351,VALID,0,
2017-01-23, 17:58:04,VALID,920.66,VALID,0,INVALID,127.12,VALID,134.194,VALID,20.1108,VALID,351,VALID,0,
2017-01-23, 17:59:04,VALID,920.675,VALID,0,INVALID,127.044,VALID,132.367,VALID,20.2293,VALID,351,VALID,0,
2017-01-23, 18:00:04,VALID,920.694,VALID,0,INVALID,127.303,VALID,132.045,VALID,20.2293,VALID,356,VALID,0,
2017-01-23, 18:02:04,VALID,920.705,VALID,0,INVALID,127.723,VALID,130.111,VALID,20.1708,VALID,359,VALID,0,
2017-01-23, 18:03:04,VALID,920.7,VALID,0,INVALID,127.7,VALID,130.434,VALID,20.2098,VALID,359,VALID,0,
2017-01-23, 18:04:04,VALID,920.696,VALID,0.2,INVALID,127.685,VALID,137.525,VALID,20.2489,VALID,359,VALID,0,
2017-01-23, 18:05:04,VALID,920.689,VALID,0,INVALID,127.799,VALID,137.095,VALID,20.2684,VALID,359,VALID,0,
2017-01-23, 18:06:04,VALID,920.66,VALID,0,INVALID,128.112,VALID,130.648,VALID,20.1903,VALID,29,VALID,0,
2017-01-23, 18:07:04,VALID,920.665,VALID,0,INVALID,128.142,VALID,135.483,VALID,20.2098,VALID,28,VALID,0,
2017-01-23, 18:13:04,VALID,920.628,VALID,0,INVALID,128.5,VALID,133.227,VALID,20.3269,VALID,325,VALID,0,
2017-01-23, 18:15:04,VALID,920.596,VALID,0,INVALID,128.653,VALID,139.888,VALID,20.3253,VALID,261,VALID,0,
2017-01-23, 18:16:04,VALID,920.62,VALID,0,INVALID,128.721,VALID,153.641,VALID,20.3659,VALID,311,VALID,0,
2017-01-23, 18:17:04,VALID,920.592,VALID,0,INVALID,129.171,VALID,145.69,VALID,20.2473,VALID,296,VALID,0,
2017-01-23, 18:18:04,VALID,920.613,VALID,0,INVALID,129.24,VALID,146.55,VALID,20.2489,VALID,304,VALID,0,
2017-01-23, 18:19:04,VALID,920.62,VALID,0.2,INVALID,129.407,VALID,146.765,VALID,20.1888,VALID,36,VALID,0,
2017-01-23, 18:20:04,VALID,920.596,VALID,0,INVALID,129.4,VALID,148.161,VALID,20.2278,VALID,36,VALID,0,
2017-01-23, 18:21:04,VALID,920.589,VALID,0,INVALID,129.438,VALID,153.104,VALID,20.2473,VALID,48,VALID,0,
2017-01-23, 18:22:04,VALID,920.61,VALID,0,INVALID,129.468,VALID,157.509,VALID,20.2473,VALID,353,VALID,0,
2017-01-23, 18:23:04,VALID,920.561,VALID,0,INVALID,129.758,VALID,156.649,VALID,20.1693,VALID,261,VALID,0,
2017-01-23, 18:24:04,VALID,920.567,VALID,0,INVALID,129.667,VALID,143.649,VALID,20.2489,VALID,261,VALID,0,
2017-01-23, 18:25:04,VALID,920.556,VALID,0,INVALID,129.674,VALID,138.277,VALID,20.2489,VALID,261,VALID,0,
2017-01-23, 18:26:04,VALID,920.531,VALID,0.2,INVALID,129.682,VALID,138.492,VALID,20.2668,VALID,256,VALID,0,
2017-01-23, 18:27:04,VALID,920.509,VALID,0,INVALID,129.85,VALID,134.301,VALID,20.2293,VALID,257,VALID,0,
2017-01-23, 18:28:04,VALID,920.542,VALID,0,INVALID,129.796,VALID,140.103,VALID,20.2863,VALID,306,VALID,0,
2017-01-23, 18:29:04,VALID,920.511,VALID,0,INVALID,130.01,VALID,157.294,VALID,20.2879,VALID,353,VALID,0,
2017-01-23, 18:30:04,VALID,920.492,VALID,0,INVALID,130.055,VALID,162.129,VALID,20.2489,VALID,26,VALID,0,
2017-01-23, 18:31:04,VALID,920.496,VALID,0,INVALID,130.033,VALID,166.426,VALID,20.2668,VALID,11,VALID,0,
2017-01-23, 18:32:04,VALID,920.486,VALID,0.2,INVALID,129.979,VALID,171.476,VALID,20.2863,VALID,354,VALID,0,
2017-01-23, 18:33:04,VALID,920.458,VALID,0,INVALID,130.2,VALID,171.369,VALID,20.2278,VALID,7,VALID,0,
2017-01-23, 18:34:04,VALID,920.458,VALID,0,INVALID,130.246,VALID,172.336,VALID,20.2098,VALID,15,VALID,0,
2017-01-23, 18:35:04,VALID,920.422,VALID,0,INVALID,130.406,VALID,166.856,VALID,20.1318,VALID,288,VALID,0,
2017-01-23, 18:36:04,VALID,920.428,VALID,0,INVALID,130.543,VALID,154.5,VALID,20.0148,VALID,348,VALID,0,
2017-01-23, 18:37:04,VALID,920.408,VALID,0.2,INVALID,130.338,VALID,163.633,VALID,20.0718,VALID,359,VALID,0,
2017-01-23, 18:38:04,VALID,920.411,VALID,0,INVALID,130.46,VALID,169.112,VALID,20.0328,VALID,16,VALID,0.221875,
2017-01-23, 18:39:04,VALID,920.389,VALID,0,INVALID,130.277,VALID,161.269,VALID,20.0913,VALID,24,VALID,0,
2017-01-23, 18:40:04,VALID,920.381,VALID,0,INVALID,130.254,VALID,184.047,VALID,20.0913,VALID,14,VALID,0,
2017-01-23, 18:41:04,VALID,920.404,VALID,0,INVALID,130.246,VALID,173.625,VALID,20.0913,VALID,9,VALID,0,
2017-01-23, 18:42:04,VALID,920.384,VALID,0,INVALID,130.17,VALID,149.988,VALID,20.0898,VALID,18,VALID,0,
2017-01-23, 18:51:04,VALID,920.333,VALID,0,INVALID,129.956,VALID,147.409,VALID,20.0553,VALID,22,VALID,0,
2017-01-23, 18:52:04,VALID,920.296,VALID,0,INVALID,129.949,VALID,136.773,VALID,20.0358,VALID,30,VALID,0,
2017-01-23, 19:02:04,VALID,920.26,VALID,0,INVALID,129.994,VALID,144.831,VALID,19.9158,VALID,42,VALID,0.0195313,
2017-01-23, 19:03:04,VALID,920.247,VALID,0,INVALID,129.949,VALID,150.31,VALID,19.8963,VALID,33,VALID,1.28398,
2017-01-23, 19:04:04,VALID,920.278,VALID,0,INVALID,129.758,VALID,134.516,VALID,19.9353,VALID,7,VALID,0,
2017-01-23, 19:05:04,VALID,920.256,VALID,0,INVALID,129.994,VALID,152.996,VALID,19.8378,VALID,15,VALID,1.48398,
2017-01-23, 19:06:04,VALID,920.262,VALID,0,INVALID,129.743,VALID,198.229,VALID,19.8963,VALID,35,VALID,0.980469,
2017-01-23, 19:07:04,VALID,920.257,VALID,0,INVALID,129.682,VALID,212.089,VALID,19.9158,VALID,356,VALID,0.607031,
2017-01-23, 19:08:04,VALID,920.24,VALID,0,INVALID,129.743,VALID,216.279,VALID,19.9368,VALID,11,VALID,0.984766,
2017-01-23, 19:09:04,VALID,920.246,VALID,0,INVALID,129.949,VALID,226.164,VALID,19.8573,VALID,14,VALID,1.36914,
2017-01-23, 19:10:04,VALID,920.23,VALID,0,INVALID,129.773,VALID,215.42,VALID,19.9353,VALID,19,VALID,1.97227,
2017-01-23, 19:11:04,VALID,920.205,VALID,0,INVALID,129.888,VALID,239.164,VALID,19.8768,VALID,15,VALID,2.23828,
2017-01-23, 19:12:04,VALID,920.198,VALID,0,INVALID,129.705,VALID,244.751,VALID,19.9548,VALID,24,VALID,1.46953,
2017-01-23, 19:13:04,VALID,920.195,VALID,0,INVALID,129.705,VALID,234.114,VALID,19.9938,VALID,36,VALID,2.37812,
2017-01-23, 19:14:04,VALID,920.218,VALID,0.2,INVALID,129.644,VALID,236.585,VALID,20.0133,VALID,27,VALID,1.20586,
2017-01-23, 19:15:04,VALID,920.233,VALID,0,INVALID,129.804,VALID,235.618,VALID,20.0733,VALID,354,VALID,1.8582,
2017-01-23, 19:16:04,VALID,920.196,VALID,0,INVALID,129.812,VALID,230.032,VALID,20.0328,VALID,29,VALID,1.56602,
2017-01-23, 19:17:04,VALID,920.202,VALID,0,INVALID,129.964,VALID,211.767,VALID,20.0133,VALID,22,VALID,2.21328,
2017-01-23, 19:18:04,VALID,920.195,VALID,0,INVALID,130.048,VALID,218.535,VALID,20.0148,VALID,28,VALID,1.48555,
2017-01-23, 19:19:04,VALID,920.169,VALID,0.2,INVALID,129.972,VALID,227.131,VALID,20.0328,VALID,19,VALID,1.17305,
2017-01-23, 19:20:04,VALID,920.171,VALID,0,INVALID,129.773,VALID,235.081,VALID,20.1108,VALID,34,VALID,1.63906,
2017-01-23, 19:21:04,VALID,920.161,VALID,0,INVALID,130.277,VALID,225.089,VALID,19.9938,VALID,10,VALID,0.998047,
2017-01-23, 19:22:04,VALID,920.151,VALID,0,INVALID,130.49,VALID,201.452,VALID,19.8963,VALID,287,VALID,0.741406,
2017-01-23, 19:23:04,VALID,920.135,VALID,0,INVALID,130.612,VALID,208.328,VALID,19.8168,VALID,11,VALID,2.35664,
2017-01-23, 19:24:04,VALID,920.128,VALID,0,INVALID,130.726,VALID,201.237,VALID,19.7208,VALID,24,VALID,0.253906,
2017-01-23, 19:25:04,VALID,920.118,VALID,0,INVALID,130.627,VALID,217.891,VALID,19.7598,VALID,326,VALID,0.244531,
2017-01-23, 19:26:04,VALID,920.091,VALID,0,INVALID,130.528,VALID,208.114,VALID,19.7793,VALID,348,VALID,0.883594,
2017-01-23, 19:27:04,VALID,920.072,VALID,0,INVALID,130.521,VALID,237.445,VALID,19.7973,VALID,92,VALID,0.490234,
2017-01-23, 19:28:04,VALID,920.086,VALID,0,INVALID,130.482,VALID,247.33,VALID,19.8573,VALID,5,VALID,1.08555,
2017-01-23, 19:29:04,VALID,920.072,VALID,0,INVALID,130.391,VALID,224.767,VALID,19.9158,VALID,312,VALID,1.26406,
2017-01-23, 19:30:04,VALID,920.044,VALID,0,INVALID,130.635,VALID,238.842,VALID,19.7973,VALID,42,VALID,1.6793,
2017-01-23, 19:31:04,VALID,920.031,VALID,0,INVALID,130.452,VALID,252.164,VALID,19.9158,VALID,26,VALID,1.33125,
2017-01-23, 19:32:04,VALID,920.031,VALID,0,INVALID,130.269,VALID,238.412,VALID,20.0328,VALID,23,VALID,0.908203,
2017-01-23, 19:33:04,VALID,920.029,VALID,0,INVALID,130.36,VALID,256.784,VALID,20.0523,VALID,9,VALID,1.02656,
2017-01-23, 19:34:04,VALID,920.019,VALID,0,INVALID,130.421,VALID,257.966,VALID,20.0508,VALID,13,VALID,1.56289,
2017-01-23, 19:35:04,VALID,920.042,VALID,0,INVALID,130.742,VALID,232.825,VALID,19.9938,VALID,26,VALID,1.47187,
2017-01-23, 19:36:04,VALID,920.037,VALID,0,INVALID,130.62,VALID,233.47,VALID,19.9728,VALID,6,VALID,1.38594,
2017-01-23, 19:37:04,VALID,920.008,VALID,0.2,INVALID,130.421,VALID,260.008,VALID,20.1303,VALID,19,VALID,1.90898,
2017-01-23, 19:38:04,VALID,920.017,VALID,0,INVALID,130.277,VALID,269.892,VALID,20.2083,VALID,352,VALID,0.978516,
2017-01-23, 19:39:04,VALID,920.003,VALID,0,INVALID,130.566,VALID,258.289,VALID,20.1693,VALID,9,VALID,1.78906,
2017-01-23, 19:40:04,VALID,919.983,VALID,0,INVALID,130.841,VALID,248.511,VALID,19.9938,VALID,295,VALID,1.35977,
2017-01-23, 19:41:04,VALID,919.992,VALID,0,INVALID,130.925,VALID,245.825,VALID,19.8753,VALID,7,VALID,2.17773,
2017-01-23, 19:42:04,VALID,919.991,VALID,0,INVALID,130.703,VALID,255.71,VALID,20.0133,VALID,350,VALID,1.34687,
2017-01-23, 19:43:04,VALID,919.983,VALID,0,INVALID,130.711,VALID,237.982,VALID,20.0118,VALID,70,VALID,0.182422,
2017-01-23, 19:44:04,VALID,919.999,VALID,0,INVALID,130.719,VALID,213.486,VALID,20.0313,VALID,59,VALID,1.21133,
2017-01-23, 19:45:04,VALID,919.97,VALID,0,INVALID,130.62,VALID,194.254,VALID,20.1093,VALID,331,VALID,1.1,
2017-01-23, 19:46:04,VALID,919.952,VALID,0,INVALID,130.818,VALID,177.923,VALID,20.0118,VALID,6,VALID,1.10664,
2017-01-23, 19:47:04,VALID,919.979,VALID,0,INVALID,130.818,VALID,148.376,VALID,20.0313,VALID,245,VALID,0,
2017-01-23, 19:49:04,VALID,919.957,VALID,0,INVALID,130.963,VALID,144.616,VALID,19.9923,VALID,27,VALID,1.62109,
2017-01-23, 19:50:04,VALID,919.961,VALID,0,INVALID,130.886,VALID,155.252,VALID,19.9923,VALID,252,VALID,0,
2017-01-23, 19:51:04,VALID,919.929,VALID,0,INVALID,130.856,VALID,142.252,VALID,20.0118,VALID,46,VALID,0.212109,
2017-01-23, 19:56:04,VALID,919.879,VALID,0,INVALID,130.886,VALID,142.037,VALID,19.9353,VALID,305,VALID,0.962109,
2017-01-23, 19:57:04,VALID,919.898,VALID,0,INVALID,130.955,VALID,154.715,VALID,19.8378,VALID,316,VALID,1.27227,
2017-01-23, 19:58:04,VALID,919.851,VALID,0,INVALID,130.909,VALID,154.178,VALID,19.7583,VALID,4,VALID,1.80508,
2017-01-23, 19:59:04,VALID,919.849,VALID,0,INVALID,130.833,VALID,149.236,VALID,19.7973,VALID,3,VALID,1.10195,
2017-01-23, 20:00:04,VALID,919.84,VALID,0,INVALID,130.833,VALID,149.88,VALID,19.8573,VALID,55,VALID,0.576953,
2017-01-23, 20:01:04,VALID,919.807,VALID,0,INVALID,130.673,VALID,159.55,VALID,19.9353,VALID,29,VALID,0.845312,
2017-01-23, 20:02:04,VALID,919.804,VALID,0,INVALID,130.62,VALID,182.328,VALID,19.9728,VALID,347,VALID,0,
2017-01-23, 20:03:04,VALID,919.78,VALID,0,INVALID,130.521,VALID,223.907,VALID,20.0523,VALID,5,VALID,0,
2017-01-23, 20:04:04,VALID,919.768,VALID,0,INVALID,130.46,VALID,231.536,VALID,20.1108,VALID,359,VALID,0,
2017-01-23, 20:05:04,VALID,919.733,VALID,0,INVALID,130.581,VALID,227.131,VALID,20.1108,VALID,354,VALID,0,
2017-01-23, 20:06:04,VALID,919.731,VALID,0,INVALID,130.383,VALID,236.908,VALID,20.2083,VALID,354,VALID,0,
2017-01-23, 20:07:04,VALID,919.705,VALID,0,INVALID,130.345,VALID,230.784,VALID,20.2863,VALID,354,VALID,0,
2017-01-23, 20:08:04,VALID,919.69,VALID,0,INVALID,130.208,VALID,216.924,VALID,20.4033,VALID,33,VALID,0,
2017-01-23, 20:09:04,VALID,919.661,VALID,0,INVALID,130.772,VALID,211.552,VALID,20.3058,VALID,343,VALID,0,
2017-01-23, 20:10:04,VALID,919.622,VALID,0,INVALID,130.825,VALID,205.213,VALID,20.2668,VALID,26,VALID,0,
2017-01-23, 20:11:04,VALID,919.63,VALID,0,INVALID,130.795,VALID,184.154,VALID,20.2863,VALID,14,VALID,1.98789,
2017-01-23, 20:12:04,VALID,919.601,VALID,0,INVALID,130.902,VALID,194.039,VALID,20.2473,VALID,324,VALID,0.670703,
2017-01-23, 20:13:04,VALID,919.621,VALID,0,INVALID,130.833,VALID,234.329,VALID,20.3058,VALID,30,VALID,0.0105469,
2017-01-23, 20:14:04,VALID,919.605,VALID,0,INVALID,130.78,VALID,266.024,VALID,20.3448,VALID,26,VALID,0,
2017-01-23, 20:15:04,VALID,919.573,VALID,0,INVALID,130.94,VALID,227.883,VALID,20.3628,VALID,9,VALID,1.43125,
2017-01-23, 20:16:04,VALID,919.539,VALID,0,INVALID,130.993,VALID,213.808,VALID,20.3058,VALID,327,VALID,0.576172,
2017-01-23, 20:17:04,VALID,919.528,VALID,0,INVALID,130.94,VALID,203.064,VALID,20.2068,VALID,6,VALID,0.607422,
2017-01-23, 20:18:04,VALID,919.505,VALID,0,INVALID,130.894,VALID,207.576,VALID,20.2458,VALID,319,VALID,0.290234,
2017-01-23, 20:19:04,VALID,919.465,VALID,0,INVALID,130.902,VALID,194.468,VALID,20.3238,VALID,344,VALID,0.502344,
2017-01-23, 20:20:04,VALID,919.484,VALID,0,INVALID,130.909,VALID,218.213,VALID,20.3058,VALID,29,VALID,0.00195313,
2017-01-23, 20:21:04,VALID,919.458,VALID,0,INVALID,130.879,VALID,250.123,VALID,20.3238,VALID,14,VALID,0,
2017-01-23, 20:22:04,VALID,919.435,VALID,0,INVALID,130.848,VALID,273.223,VALID,20.4408,VALID,7,VALID,1.17656,
2017-01-23, 20:23:04,VALID,919.419,VALID,0,INVALID,130.879,VALID,262.586,VALID,20.5399,VALID,21,VALID,0.804297,
2017-01-23, 20:24:04,VALID,919.416,VALID,0,INVALID,130.864,VALID,256.784,VALID,20.5383,VALID,238,VALID,0,
2017-01-23, 20:25:04,VALID,919.404,VALID,0,INVALID,130.963,VALID,261.189,VALID,20.4408,VALID,27,VALID,1.05664,
2017-01-23, 20:26:04,VALID,919.409,VALID,0,INVALID,130.894,VALID,258.396,VALID,20.5219,VALID,321,VALID,0,
2017-01-23, 20:27:04,VALID,919.41,VALID,0,INVALID,130.871,VALID,224.659,VALID,20.6194,VALID,4,VALID,0,
2017-01-23, 20:28:04,VALID,919.397,VALID,0,INVALID,130.955,VALID,231.428,VALID,20.4423,VALID,221,VALID,1.33594,
2017-01-23, 20:29:04,VALID,919.363,VALID,0,INVALID,130.856,VALID,250.553,VALID,20.4228,VALID,52,VALID,1.16172,
2017-01-23, 20:30:04,VALID,919.324,VALID,0,INVALID,130.703,VALID,257.966,VALID,20.3448,VALID,2,VALID,1.61914,
2017-01-23, 20:31:04,VALID,919.336,VALID,0,INVALID,130.81,VALID,251.627,VALID,20.4033,VALID,326,VALID,0.746094,
2017-01-23, 20:32:04,VALID,919.317,VALID,0,INVALID,130.864,VALID,236.8,VALID,20.4813,VALID,17,VALID,1.23867,
2017-01-23, 20:33:04,VALID,919.276,VALID,0,INVALID,130.917,VALID,202.527,VALID,20.3838,VALID,315,VALID,0.669531,
2017-01-23, 20:34:04,VALID,919.279,VALID,0,INVALID,130.864,VALID,164.385,VALID,20.4228,VALID,19,VALID,0.819141,
2017-01-23, 20:35:04,VALID,919.279,VALID,0,INVALID,130.848,VALID,181.79,VALID,20.5399,VALID,3,VALID,0.263672,
2017-01-23, 20:36:04,VALID,919.285,VALID,0,INVALID,130.879,VALID,234.114,VALID,20.5578,VALID,346,VALID,0,
2017-01-23, 20:37:04,VALID,919.301,VALID,0,INVALID,130.955,VALID,261.619,VALID,20.5204,VALID,217,VALID,1.05938,
2017-01-23, 20:38:04,VALID,919.288,VALID,0,INVALID,130.818,VALID,244.966,VALID,20.4018,VALID,222,VALID,1.21367,
2017-01-23, 20:39:04,VALID,919.27,VALID,0,INVALID,130.703,VALID,217.461,VALID,20.4228,VALID,219,VALID,0.522266,
2017-01-23, 20:40:04,VALID,919.273,VALID,0,INVALID,130.742,VALID,200.7,VALID,20.4618,VALID,238,VALID,0.000390625,
2017-01-23, 20:41:04,VALID,919.241,VALID,0,INVALID,130.452,VALID,202.312,VALID,20.3628,VALID,322,VALID,0.688672,
2017-01-23, 20:42:04,VALID,919.187,VALID,0,INVALID,130.559,VALID,237.015,VALID,20.4018,VALID,17,VALID,1.49336,
2017-01-23, 20:43:04,VALID,919.148,VALID,0,INVALID,130.223,VALID,251.412,VALID,20.3058,VALID,351,VALID,1.62695,
2017-01-23, 20:44:04,VALID,919.149,VALID,0,INVALID,130.155,VALID,254.313,VALID,20.2263,VALID,356,VALID,2.9418,
2017-01-23, 20:45:04,VALID,919.175,VALID,0,INVALID,130.444,VALID,232.932,VALID,20.3253,VALID,27,VALID,1.54375,
2017-01-23, 20:46:04,VALID,919.142,VALID,0,INVALID,130.734,VALID,226.808,VALID,20.4813,VALID,24,VALID,1.15625,
2017-01-23, 20:47:04,VALID,919.135,VALID,0,INVALID,130.772,VALID,258.611,VALID,20.5578,VALID,353,VALID,0.873828,
2017-01-23, 20:48:04,VALID,919.151,VALID,0,INVALID,130.803,VALID,273.975,VALID,20.5009,VALID,82,VALID,0,
2017-01-23, 20:49:04,VALID,919.109,VALID,0,INVALID,130.787,VALID,286.008,VALID,20.5594,VALID,36,VALID,1.11836,
2017-01-23, 20:50:04,VALID,919.119,VALID,0,INVALID,130.528,VALID,307.174,VALID,20.5204,VALID,334,VALID,0.167969,
2017-01-23, 20:51:04,VALID,919.111,VALID,0,INVALID,130.559,VALID,287.19,VALID,20.6374,VALID,11,VALID,0,
2017-01-23, 20:52:04,VALID,919.094,VALID,0,INVALID,130.482,VALID,283.215,VALID,20.6764,VALID,299,VALID,0,
2017-01-23, 20:53:04,VALID,919.081,VALID,0,INVALID,130.505,VALID,289.769,VALID,20.7333,VALID,356,VALID,1.55313,
2017-01-23, 20:54:04,VALID,919.044,VALID,0,INVALID,129.598,VALID,275.587,VALID,20.6764,VALID,10,VALID,0.791797,
2017-01-23, 20:55:04,VALID,919.051,VALID,0,INVALID,129.446,VALID,277.735,VALID,20.6569,VALID,10,VALID,1.09922,
2017-01-23, 20:56:04,VALID,919.071,VALID,0,INVALID,130.17,VALID,298.794,VALID,20.7723,VALID,16,VALID,1.53437,
2017-01-23, 20:57:04,VALID,919.073,VALID,0,INVALID,130.513,VALID,283.645,VALID,20.891,VALID,293,VALID,0,
2017-01-23, 20:58:04,VALID,919.082,VALID,0,INVALID,130.665,VALID,278.702,VALID,20.9658,VALID,7,VALID,0,
2017-01-23, 20:59:04,VALID,919.054,VALID,0,INVALID,129.987,VALID,265.702,VALID,20.9089,VALID,32,VALID,0.0253906,
2017-01-23, 21:00:04,VALID,919.007,VALID,0,INVALID,129.499,VALID,244.321,VALID,20.969,VALID,351,VALID,1.05664,
2017-01-23, 21:01:04,VALID,919.002,VALID,0,INVALID,129.476,VALID,210.585,VALID,20.9674,VALID,21,VALID,1.07187,